Weather History for NW Arkansas Airport, AR

Change the Weather History Date:

Sunday, July 28, 2013

  Actual Average Record
Temperature  
Mean Temperature 72 °F -  
Max Temperature 81 °F - - ()
Min Temperature 63 °F - - ()
Cooling Degree Days 6    
Growing Degree Days 22 (Base 50)    
Moisture  
Dew Point 62 °F    
Average Humidity 76    
Maximum Humidity 93    
Minimum Humidity 54    
Precipitation  
Precipitation 0.00 in - - ()
Sea Level Pressure  
Sea Level Pressure 30.01 in    
Wind  
Wind Speed 2 mph (ENE)    
Max Wind Speed 10 mph    
Max Gust Speed -    
Visibility 10 miles    
Events      
T = Trace of Precipitation, MM = Missing Value Source: NWS Daily Summary

Daily Weather History Graph

Daily Weather History Graph

Search for Another Location

Airport:

Trip Planner

Search our weather history database for the weather conditions in past years. The results will help you decide how hot, cold, wet, or windy it might be!

Date:

Astronomy

Jul. 28, 2013 Rise Set
Actual Time 6:21 AM CDT 8:25 PM CDT
Civil Twilight 5:52 AM CDT 8:54 PM CDT
Nautical Twilight 5:17 AM CDT 9:29 PM CDT
Astronomical Twilight 4:39 AM CDT 10:06 PM CDT
Moon No Moon Rise 12:50 PM CDT (7/28)
Length of Visible Light 15h 02m
Length of Day
14h 04m
Waning Gibbous, 60% of the Moon is Illuminated
Jul 28
Waning Gibbous
Jul 29
Last Quarter
Aug 6
New
Aug 14
First Quarter
Aug 20
Full

Hourly Weather History & Observations

Time (CDT) Temp. Heat Index Dew Point Humidity Pressure Visibility Wind Dir Wind Speed Gust Speed Precip Events Conditions
12:53 AM 63.0 °F - 60.1 °F 90% 30.00 in 10.0 mi Calm Calm - N/A   Clear
1:53 AM 64.0 °F - 60.1 °F 87% 29.99 in 10.0 mi Calm Calm - N/A   Mostly Cloudy
2:53 AM 64.0 °F - 60.1 °F 87% 29.99 in 10.0 mi Calm Calm - N/A   Mostly Cloudy
3:53 AM 64.0 °F - 61.0 °F 90% 29.98 in 10.0 mi Calm Calm - N/A   Overcast
4:53 AM 64.9 °F - 61.0 °F 87% 29.99 in 10.0 mi Calm Calm - N/A   Mostly Cloudy
5:53 AM 64.0 °F - 62.1 °F 93% 30.02 in 10.0 mi North 3.5 mph - 0.00 in   Mostly Cloudy
6:53 AM 64.0 °F - 61.0 °F 90% 30.01 in 10.0 mi Calm Calm - N/A   Partly Cloudy
7:53 AM 64.9 °F - 61.0 °F 87% 30.03 in 7.0 mi Calm Calm - N/A   Partly Cloudy
8:53 AM 66.0 °F - 62.1 °F 87% 30.04 in 10.0 mi Calm Calm - N/A   Scattered Clouds
9:53 AM 68.0 °F - 61.0 °F 78% 30.02 in 10.0 mi ESE 5.8 mph - N/A   Clear
10:53 AM 70.0 °F - 62.1 °F 76% 30.02 in 10.0 mi South 5.8 mph - N/A   Clear
11:53 AM 73.0 °F - 62.1 °F 68% 30.02 in 10.0 mi SSW 4.6 mph - N/A   Clear
12:53 PM 78.1 °F - 62.1 °F 58% 30.01 in 10.0 mi Variable 3.5 mph - N/A   Clear
1:53 PM 79.0 °F - 61.0 °F 54% 30.02 in 10.0 mi Calm Calm - N/A   Clear
2:53 PM 80.1 °F 81.2 °F 62.1 °F 54% 30.01 in 10.0 mi Variable 6.9 mph - N/A   Clear
3:53 PM 78.1 °F - 62.1 °F 58% 30.01 in 10.0 mi North 8.1 mph - N/A   Clear
4:53 PM 75.9 °F - 64.0 °F 67% 30.00 in 10.0 mi NNE 10.4 mph - N/A   Clear
5:53 PM 75.0 °F - 63.0 °F 66% 30.00 in 10.0 mi NE 9.2 mph - N/A   Clear
6:53 PM 73.0 °F - 63.0 °F 71% 30.02 in 10.0 mi ENE 9.2 mph - N/A   Clear
7:53 PM 71.1 °F - 63.0 °F 75% 30.03 in 10.0 mi East 5.8 mph - N/A   Clear
8:53 PM 71.1 °F - 62.1 °F 73% 30.02 in 10.0 mi ESE 5.8 mph - N/A   Clear
9:53 PM 70.0 °F - 62.1 °F 76% 30.02 in 10.0 mi East 4.6 mph - N/A   Clear
10:53 PM 70.0 °F - 63.0 °F 78% 30.03 in 10.0 mi Calm Calm - N/A   Clear
11:53 PM 69.1 °F - 63.0 °F 81% 30.02 in 10.0 mi NE 3.5 mph - N/A   Clear